Terminal Aerodrome Forecast
Issued by NWS

Home | Current Version | Previous Version | Text Only | Print | Product List | Glossary On
Versions: 1 2 3 4 5 6 7 8 9 10 11 12 13 14 15 16 17 18 19 20 21 22 23 24 25 26 27 28 29 30 31 32 33 34 35 36 37 38 39
123
FTUS41 KGYX 240853 AAA
TAFMHT
TAF AMD
KMHT 240853Z 2409/2506 VRB04KT P6SM FEW250
     FM241300 32007KT P6SM SKC
     FM250000 VRB03KT P6SM SCT200=

USA.gov is the U.S. government's official web portal to all federal, state and local government web resources and services.